Date String (YYYY-MM-DD hh:mm:ss) UTC,Instrument flags,Ambient pressure (hPa),Sample flow (lpm),Bypass flow (lpm),Sample temperature (°C),Ambient temperature (°C),ASC tube jacket temperature (°C),LED temperature (°C),Box temperature (°C),Sample RH (%),Span deviation,Mass concentration (μg/m³),Mass concentration (μg/m³),Mass concentration (μg/m³)
DateTimeUTC,F1_M11,P_M11,Q1_M11,Q2_M11,T1_M11,T2_M11,T3_M11,T4_M11,T5_M11,U1_M11,ZSPAN_M11,X0_M11,X2_M11,X1_M11
2021-10-15 23:00:00,,0832.1,5.00,0.00,28.3,27.6,00.0,37.3,30.1,07.3,0000.0,0004.39,0001.96,0001.58
2021-10-15 23:01:00,,0832.1,5.00,0.00,28.3,27.6,00.0,37.3,30.1,07.3,0000.0,0004.31,0001.94,0001.56
2021-10-15 23:02:00,,0832.1,5.00,0.00,28.3,27.6,00.0,37.3,30.1,07.3,0000.0,0004.04,0001.91,0001.55
2021-10-15 23:03:00,,0832.1,5.01,0.00,28.3,27.7,00.0,37.3,30.1,07.3,0000.0,0003.44,0001.92,0001.55
2021-10-15 23:04:00,,0832.1,4.99,0.00,28.3,27.7,00.0,37.3,30.1,07.1,0000.0,0003.20,0001.88,0001.54
2021-10-15 23:05:00,,0832.1,5.00,0.00,28.3,27.7,00.0,37.3,30.1,07.1,0000.0,0003.23,0001.88,0001.52
2021-10-15 23:06:00,,0832.1,5.00,0.00,28.3,27.7,00.0,37.3,30.1,07.1,0000.0,0003.38,0001.90,0001.52
2021-10-15 23:07:00,,0832.1,5.00,0.00,28.3,27.7,00.0,37.3,30.1,07.0,0000.0,0003.70,0001.95,0001.52
2021-10-15 23:08:00,,0832.1,4.99,0.00,28.3,27.7,00.0,37.4,30.1,07.1,0000.0,0003.66,0001.94,0001.51
2021-10-15 23:09:00,,0832.1,5.01,0.00,28.3,27.7,00.0,37.4,30.0,07.1,0000.0,0003.68,0001.90,0001.52
2021-10-15 23:10:00,,0832.1,5.01,0.00,28.3,27.7,00.0,37.4,30.1,07.1,0000.0,0003.70,0001.90,0001.53
2021-10-15 23:11:00,,0832.1,5.00,0.00,28.3,27.7,00.0,37.4,30.0,07.1,0000.0,0003.69,0001.90,0001.52
2021-10-15 23:12:00,,0832.1,4.99,0.00,28.3,27.7,00.0,37.4,30.1,07.0,0000.0,0003.73,0001.90,0001.53
2021-10-15 23:13:00,,0832.1,5.00,0.00,28.3,27.7,00.0,37.4,30.1,07.0,0000.0,0003.69,0001.92,0001.54
2021-10-15 23:14:00,,0832.1,5.01,0.00,28.3,27.7,00.0,37.4,30.1,07.0,0000.0,0003.69,0001.92,0001.54
2021-10-15 23:15:00,,0832.1,5.00,0.00,28.3,27.6,00.0,37.4,30.1,07.1,0000.0,0003.41,0001.91,0001.54
2021-10-15 23:16:00,,0832.1,5.00,0.00,28.3,27.6,00.0,37.4,30.1,07.1,0000.0,0003.54,0001.89,0001.54
2021-10-15 23:17:00,,0832.1,5.00,0.00,28.3,27.6,00.0,37.4,30.1,07.1,0000.0,0003.71,0001.93,0001.53
2021-10-15 23:18:00,,0832.1,5.00,0.00,28.3,27.6,00.0,37.4,30.2,07.1,0000.0,0003.54,0001.93,0001.54
2021-10-15 23:19:00,,0832.2,5.00,0.00,28.3,27.6,00.0,37.4,30.2,07.1,0000.0,0003.68,0001.96,0001.54
2021-10-15 23:20:00,,0832.2,5.00,0.00,28.4,27.6,00.0,37.4,30.2,07.1,0000.0,0003.81,0001.96,0001.53
2021-10-15 23:21:00,,0832.1,5.01,0.00,28.4,27.7,00.0,37.4,30.2,07.1,0000.0,0003.80,0001.97,0001.52
2021-10-15 23:22:00,,0832.2,4.99,0.00,28.4,27.7,00.0,37.4,30.2,07.1,0000.0,0003.78,0001.95,0001.52
2021-10-15 23:23:00,,0832.2,4.99,0.00,28.4,27.7,00.0,37.4,30.2,07.1,0000.0,0003.85,0001.96,0001.51
2021-10-15 23:24:00,,0832.2,5.00,0.00,28.4,27.7,00.0,37.4,30.2,07.1,0000.0,0004.48,0001.94,0001.50
2021-10-15 23:25:00,,0832.2,5.00,0.00,28.4,27.7,00.0,37.4,30.2,07.2,0000.0,0004.59,0001.91,0001.50
2021-10-15 23:26:00,,0832.2,5.01,0.00,28.4,27.7,00.0,37.4,30.2,07.2,0000.0,0004.58,0001.90,0001.50
2021-10-15 23:27:00,,0832.2,5.00,0.00,28.4,27.8,00.0,37.5,30.2,07.2,0000.0,0004.49,0001.93,0001.50
2021-10-15 23:28:00,,0832.2,4.99,0.00,28.5,27.8,00.0,37.5,30.3,07.2,0000.0,0004.93,0001.93,0001.51
2021-10-15 23:29:00,,0832.2,5.00,0.00,28.5,27.8,00.0,37.5,30.3,07.1,0000.0,0005.10,0001.90,0001.49
2021-10-15 23:30:00,,0832.2,5.00,0.00,28.5,27.8,00.0,37.5,30.3,07.1,0000.0,0005.53,0001.87,0001.50
2021-10-15 23:31:00,,0832.2,4.99,0.00,28.5,27.8,00.0,37.5,30.3,07.0,0000.0,0006.23,0001.90,0001.49
2021-10-15 23:32:00,,0832.2,5.00,0.00,28.5,27.8,00.0,37.5,30.4,07.0,0000.0,0006.25,0001.92,0001.50
2021-10-15 23:33:00,,0832.2,5.00,0.00,28.5,27.8,00.0,37.5,30.4,06.9,0000.0,0006.52,0002.02,0001.51
2021-10-15 23:34:00,,0832.3,5.00,0.00,28.5,27.8,00.0,37.5,30.3,07.0,0000.0,0006.47,0002.02,0001.50
2021-10-15 23:35:00,,0832.2,4.98,0.00,28.5,27.9,00.0,37.5,30.4,06.9,0000.0,0005.91,0002.03,0001.50
2021-10-15 23:36:00,,0832.2,5.01,0.00,28.6,27.9,00.0,37.6,30.4,06.9,0000.0,0005.62,0002.03,0001.50
2021-10-15 23:37:00,,0832.2,5.00,0.00,28.6,27.9,00.0,37.6,30.4,06.9,0000.0,0005.78,0002.09,0001.50
2021-10-15 23:38:00,,0832.2,5.00,0.00,28.6,27.9,00.0,37.6,30.4,06.9,0000.0,0006.05,0002.11,0001.50
2021-10-15 23:39:00,,0832.3,5.01,0.00,28.6,27.9,00.0,37.6,30.4,06.9,0000.0,0005.51,0002.05,0001.49
2021-10-15 23:40:00,,0832.2,4.98,0.00,28.6,27.9,00.0,37.6,30.4,07.0,0000.0,0005.11,0002.05,0001.49
2021-10-15 23:41:00,,0832.2,5.00,0.00,28.6,27.9,00.0,37.6,30.5,07.0,0000.0,0004.95,0002.05,0001.49
2021-10-15 23:42:00,,0832.3,5.01,0.00,28.6,27.9,00.0,37.6,30.5,07.0,0000.0,0003.59,0002.02,0001.48
2021-10-15 23:43:00,,0832.2,5.00,0.00,28.6,28.0,00.0,37.6,30.5,07.0,0000.0,0003.59,0002.00,0001.48
2021-10-15 23:44:00,,0832.3,5.01,0.00,28.6,28.0,00.0,37.6,30.5,07.0,0000.0,0003.37,0001.93,0001.48
2021-10-15 23:45:00,,0832.3,4.99,0.00,28.7,28.0,00.0,37.6,30.5,07.0,0000.0,0003.26,0001.88,0001.48
2021-10-15 23:46:00,,0832.2,5.00,0.00,28.7,28.0,00.0,37.6,30.5,07.0,0000.0,0003.36,0001.89,0001.48
2021-10-15 23:47:00,,0832.2,4.99,0.00,28.7,28.0,00.0,37.6,30.5,07.0,0000.0,0003.31,0001.88,0001.47
2021-10-15 23:48:00,,0832.1,5.01,0.00,28.7,28.0,00.0,37.7,30.5,07.0,0000.0,0003.37,0001.86,0001.46
2021-10-15 23:49:00,,0832.1,5.00,0.00,28.7,28.0,00.0,37.7,30.5,07.0,0000.0,0003.08,0001.79,0001.45
2021-10-15 23:50:00,,0832.1,4.99,0.00,28.7,28.0,00.0,37.7,30.5,06.9,0000.0,0003.04,0001.84,0001.45
2021-10-15 23:51:00,,0832.1,4.99,0.00,28.7,28.0,00.0,37.7,30.5,07.0,0000.0,0003.08,0001.85,0001.45
2021-10-15 23:52:00,,0832.1,5.00,0.00,28.7,28.0,00.0,37.7,30.5,07.0,0000.0,0003.09,0001.86,0001.44
2021-10-15 23:53:00,,0832.2,5.00,0.00,28.7,28.0,00.0,37.7,30.5,07.0,0000.0,0003.10,0001.86,0001.43
2021-10-15 23:54:00,,0832.2,5.01,0.00,28.7,28.0,00.0,37.7,30.5,07.0,0000.0,0002.98,0001.82,0001.43
2021-10-15 23:55:00,,0832.2,4.99,0.00,28.7,28.0,00.0,37.7,30.6,07.0,0000.0,0003.66,0001.82,0001.42
2021-10-15 23:56:00,,0832.2,5.00,0.00,28.7,28.0,00.0,37.7,30.6,07.0,0000.0,0004.00,0001.85,0001.41
2021-10-15 23:57:00,,0832.2,5.00,0.00,28.8,28.1,00.0,37.7,30.6,07.1,0000.0,0004.03,0001.88,0001.42
2021-10-15 23:58:00,,0832.2,5.01,0.00,28.8,28.1,00.0,37.7,30.6,07.1,0000.0,0003.97,0001.89,0001.43
2021-10-15 23:59:00,,0832.2,4.99,0.00,28.8,28.1,00.0,37.8,30.6,07.0,0000.0,0003.80,0001.87,0001.43
